Tracking 19792 objects as of 16-Jul-2019
HD Live streaming from Space Station
objects crossing your sky now

FENGYUN 1C DEB

Track FENGYUN 1C DEB now!
10-day predictions


NORAD ID: 35170
Int'l Code: 1999-025DNA
Perigee: 812.0 km
Apogee: 966.5 km
Inclination: 99.9 °
Period: 102.6 minutes
Semi major axis: 7260 km
RCS: 0.0097 m2 (small)
Launch date: May 10, 1999
Source: People's Republic of China (PRC)
Launch site: Taiyaun Space Center, China (TSC)

Note: This is SATELLITE DEBRIS
aabbcc
Your satellite tracking list
Your tracking list is empty




NASA's NSSDC Master Catalog

Two Line Element Set (TLE):
1 35170U 99025DNA 19195.28186097 +.00000951 +00000-0 +60987-3 0  9995
2 35170 099.8690 221.8994 0106395 208.3172 151.2182 14.03379272283574
Source of the keplerian elements: AFSPC